Regional Weather Roundup
Issued by NWS Binghamton, NY

Current Version | Previous Version | Text Only | Print | Product List | Glossary On
Versions: 1 2 3 4 5 6 7 8 9 10 11 12 13 14 15 16 17 18 19 20 21 22 23 24 25 26 27 28 29 30 31 32 33 34 35 36 37 38 39 40 41 42 43 44 45 46 47 48 49 50
000
ASUS41 KBGM 051110
RWRBGM
RWRBGM
BINGHAMTON REGIONAL WEATHER ROUNDUP
NATIONAL WEATHER SERVICE BINGHAMTON NY
700 AM EDT WED AUG 05 2015

Note: "fair" indicates few or no clouds below 12,000 feet with no
significant weather and/or obstructions to visibility.

* = Station(s) that does not report precipitation, such as rain,
snow, etc, also no thunder or fog.

!NYZ009-015>018-022>025-036-037-044>046-055>057-062-051200
...CENTRAL NEW YORK...

CITY           SKY/WX    TMP DP  RH WIND       PRES   REMARKS
BINGHAMTON     MOCLDY    58  56  93 W6        29.97R
CORTLAND       FAIR      59  59 100 SW5       29.97R
DANSVILLE      CLEAR     59  57  93 CALM      29.99R
ELMIRA         MOCLDY    58  57  97 W3        29.96R
ITHACA         MOCLDY    62  58  87 W7        29.98R
HORNELL          N/A     57  55  94 SE3       30.03R
MONTICELLO     SUNNY     55  55 100 CALM      29.97S
NORWICH        FOG       55  55 100 CALM      29.97R VSB 1/4
PENN YAN       CLEAR     62  58  86 S3        29.97R
ROME           CLOUDY    62  60  93 CALM      29.93S
SIDNEY         FOG       57  57 100 CALM      29.97R VSB 1/4
SYRACUSE       MOCLDY    64  61  88 W5        29.92R
$$

!PAZ038>040-043-044-047-048-072-051200
...NORTHEAST PENNSYLVANIA...

CITY           SKY/WX    TMP DP  RH WIND       PRES   REMARKS
HAZLETON       PTCLDY    54  54 100 CALM      30.01R
SCRANTON       CLEAR     61  56  83 CALM      29.96R
TOWANDA*       PTCLDY    61  55  82 MISG      29.98R
$$
&&
KEY
WCI = WIND CHILL INDEX
VSB = VISIBILITY
HX  = HEAT INDEX
$$


USA.gov is the U.S. government's official web portal to all federal, state and local government web resources and services.